Home   Weather   Greenville   Past weeks

Flag for USA Past Weather in Greenville, South Carolina, USA — Yesterday and Last 2 Weeks

Now
80 °F

Sunny.


Feels Like: 83 °F
Forecast: 72 / 90 °F
Wind: 5 mph from North

Location: Greenville Downtown Airport

Current Time: Aug 31, 2016 at 9:51:07 PM

Latest Report: Aug 31, 2016 at 8:53 PM


Visibility: 10 mi

Pressure: 29.91 "Hg

Humidity: 67%

Dew Point: 68 °F

Location of GreenvilleLocation

Past Weather in Greenville — Graph

°F

Greenville Temperature Yesterday

Maximum temperature yesterday: 91 °F (at 3:53 PM)
Minimum temperature yesterday: 70 °F (at 6:53 AM)
Average temperature yesterday: 81 °F

High & Low Weather Summary for the Past Weeks

 TemperatureHumidityPressure
High95 °F (Aug 26, 3:04 PM)94% (Aug 20, 6:53 AM)30.31 "Hg (Aug 20, 6:53 AM)
Low70 °F (Aug 24, 9:53 AM)36% (Aug 31, 4:53 PM)29.85 "Hg (Aug 21, 2:53 AM)
Average80 °F69%30.09 "Hg
* Reported Aug 16 7:53 PM — Aug 31 7:53 PM, Greenville, Weather by CustomWeather, © 2016

Note: Actual official high and low records may vary slightly from our data, if they occured in-between our weather recording intervals... More about our weather records

Advertising

Greenville Weather History for the Previous 24 Hours

Scroll right to see more
 ConditionsComfort  
Time TempWeatherWind HumidityBarometerVisibility
7:53 PM
Wed, Aug 31
83 °FScattered clouds.12 mph61%29.90 "Hg10 mi
6:53 PM88 °FPartly sunny.6 mph45%29.89 "Hg10 mi
5:53 PM91 °FSunny.6 mph38%29.88 "Hg10 mi
4:53 PM93 °FSunny.7 mph36%29.88 "Hg10 mi
3:53 PM92 °FScattered clouds.No wind40%29.90 "Hg10 mi
2:53 PM87 °FWarm.6 mph46%29.93 "Hg10 mi
1:53 PM89 °FSunny.3 mph42%29.96 "Hg10 mi
12:53 PM89 °FSunny.No wind43%29.98 "Hg10 mi
11:53 AM87 °FScattered clouds.3 mph48%30.00 "Hg10 mi
10:53 AM85 °FSunny.6 mph50%30.01 "Hg10 mi
9:53 AM83 °FSunny.7 mph59%30.01 "Hg10 mi
8:53 AM80 °FSunny.10 mph64%30.01 "Hg10 mi
7:53 AM76 °FClear.3 mph74%30.00 "Hg10 mi
6:53 AM75 °FClear.3 mph74%30.00 "Hg10 mi
5:53 AM76 °FClear.No wind72%30.00 "Hg10 mi
4:53 AM75 °FClear.8 mph76%30.00 "Hg10 mi
3:53 AM77 °FLight rain. Passing clouds.5 mph69%30.01 "Hg10 mi
2:53 AM76 °FPassing clouds.6 mph74%30.03 "Hg10 mi
1:53 AM77 °FClear.9 mph69%30.03 "Hg10 mi
12:53 AM77 °FClear.6 mph71%30.03 "Hg10 mi
11:53 PM
Tue, Aug 30
79 °FClear.6 mph67%30.03 "Hg10 mi
10:53 PM80 °FClear.7 mph62%30.03 "Hg10 mi
9:53 PM79 °FClear.6 mph67%30.02 "Hg10 mi
Weather by CustomWeather, © 2016

See weather overviewHow to use our weather pages